Memphis, TN

9:33 PM CDT on September 23, 2017 (GMT -0500)
Memphis International

Weather History for KMEM - November, 2012

Change the Weather History Date:

Wednesday, November 7, 2012

  Actual Average Record
Temperature  
Mean Temperature 48 °F 56 °F  
Max Temperature 56 °F 66 °F 83 °F (2005)
Min Temperature 39 °F 47 °F 24 °F (1959)
Degree Days  
Heating Degree Days 17 9  
Month to date heating degree days 72 58  
Since 1 July heating degree days 234 189  
Cooling Degree Days 0 1  
Month to date cooling degree days 3 7  
Year to date cooling degree days 2612 2250  
Moisture  
Dew Point 37 °F    
Average Humidity 71    
Maximum Humidity 96    
Minimum Humidity 46    
Precipitation  
Precipitation 0.04 in 0.16 in 3.96 in (1986)
Month to date precipitation 0.57 1.09  
Year to date precipitation 30.84 43.54  
Snow  
Snow 0.00 in 0.00 in 0.60 in (1991)
Month to date snowfall 0.0 0.0  
Since 1 July snowfall 0.0 0.0  
Since 1 September snowfall 0.0 0.0  
Snow Depth 0.00 in    
Sea Level Pressure  
Sea Level Pressure 30.08 in    
Wind  
Wind Speed 6 mph (NNW)    
Max Wind Speed 20 mph    
Max Gust Speed 33 mph    
Visibility 10 miles    
Events      
T = Trace of Precipitation, MM = Missing Value Source: NWS Daily Summary

Daily Weather History Graph

Daily Weather History Graph

Search for Another Location

Airport or City:

Trip Planner

Search our weather history database for the weather conditions in past years. The results will help you decide how hot, cold, wet, or windy it might be!

Date:

Astronomy

Nov. 07, 2012 Rise Set
Actual Time 6:27 AM CST 4:59 PM CST
Civil Twilight 6:00 AM CST 5:26 PM CST
Nautical Twilight 5:30 AM CST 5:56 PM CST
Astronomical Twilight 5:00 AM CST 6:26 PM CST
Moon No Moon Rise 12:54 PM CST (11/7)
Length of Visible Light 11h 25m
Length of Day
10h 32m
Last Quarter, 43% of the Moon is Illuminated
Nov 7
Last Quarter
Nov 13
New
Nov 20
First Quarter
Nov 28
Full
Dec 6
Last Quarter

Hourly Weather History & Observations

Time (CST) Temp. Windchill Dew Point Humidity Pressure Visibility Wind Dir Wind Speed Gust Speed Precip Events Conditions
12:30 AM 46.4 °F 44.3 °F 42.8 °F 87% 30.00 in 9.0 mi SSW 4.6 mph - 0.04 in   Scattered Clouds
12:54 AM 45.0 °F 42.6 °F 43.0 °F 93% 30.00 in 8.0 mi WSW 4.6 mph - 0.04 in   Partly Cloudy
1:54 AM 44.1 °F - 42.1 °F 93% 30.00 in 9.0 mi Calm Calm - N/A   Partly Cloudy
2:54 AM 43.0 °F - 41.0 °F 93% 29.99 in 9.0 mi Calm Calm - N/A   Partly Cloudy
3:54 AM 43.0 °F - 41.0 °F 93% 29.99 in 7.0 mi Calm Calm - N/A   Partly Cloudy
4:54 AM 42.1 °F 40.2 °F 39.9 °F 92% 30.00 in 9.0 mi West 3.5 mph - N/A   Clear
5:54 AM 41.0 °F 38.0 °F 39.0 °F 93% 30.01 in 10.0 mi West 4.6 mph - N/A   Partly Cloudy
6:54 AM 41.0 °F 38.0 °F 37.9 °F 89% 30.03 in 10.0 mi WNW 4.6 mph - N/A   Partly Cloudy
7:54 AM 46.9 °F - 39.9 °F 77% 30.04 in 10.0 mi WNW 6.9 mph - N/A   Partly Cloudy
8:54 AM 50.0 °F - 39.9 °F 68% 30.05 in 10.0 mi NW 11.5 mph - N/A   Partly Cloudy
9:54 AM 52.0 °F - 37.9 °F 59% 30.06 in 10.0 mi NNW 11.5 mph - N/A   Mostly Cloudy
10:54 AM 54.0 °F - 39.0 °F 57% 30.06 in 10.0 mi NNW 11.5 mph - N/A   Overcast
11:54 AM 54.0 °F - 36.0 °F 51% 30.05 in 10.0 mi North 15.0 mph - N/A   Overcast
12:54 PM 53.1 °F - 34.0 °F 48% 30.06 in 10.0 mi North 15.0 mph 23.0 mph N/A   Overcast
1:54 PM 53.1 °F - 34.0 °F 48% 30.06 in 10.0 mi NNW 11.5 mph 20.7 mph N/A   Mostly Cloudy
2:54 PM 54.0 °F - 35.1 °F 49% 30.07 in 10.0 mi North 15.0 mph 33.4 mph N/A   Mostly Cloudy
3:54 PM 55.9 °F - 35.1 °F 45% 30.09 in 10.0 mi North 12.7 mph - N/A   Scattered Clouds
4:54 PM 52.0 °F - 35.1 °F 53% 30.11 in 10.0 mi North 8.1 mph - N/A   Partly Cloudy
5:54 PM 48.0 °F - 36.0 °F 63% 30.13 in 10.0 mi North 5.8 mph - N/A   Partly Cloudy
6:54 PM 48.0 °F - 35.1 °F 61% 30.15 in 10.0 mi NNE 4.6 mph - N/A   Partly Cloudy
7:54 PM 46.0 °F - 35.1 °F 66% 30.16 in 10.0 mi Calm Calm - N/A   Partly Cloudy
8:54 PM 44.1 °F - 35.1 °F 71% 30.17 in 10.0 mi Calm Calm - N/A   Clear
9:54 PM 42.1 °F - 36.0 °F 79% 30.18 in 10.0 mi Calm Calm - N/A   Clear
10:54 PM 41.0 °F - 35.1 °F 79% 30.18 in 10.0 mi Calm Calm - N/A   Clear
11:54 PM 39.9 °F - 36.0 °F 86% 30.18 in 10.0 mi Calm Calm - N/A   Clear